Location: *
(49.6619°S, 177.4603°W)
Time: 02:23:15
(UTC+00:00)

Cosmos 1900 - Pass Details

Date: 31 January 2023
Orbit: 691 x 729 km, 66.1° (Epoch: 20 March)

Event Time Altitude Azimuth Distance (km) Brightness Sun altitude
Rises 08:02:20 0° 334° (NNW) 3,090 7.6 -4.5°
Reaches altitude 10° 08:04:39 10° 336° (NNW) 2,185 6.8 -4.8°
Maximum altitude 08:09:36 66° 57° (ENE) 787 4.4 -5.5°
Drops below altitude 10° 08:14:39 10° 138° (SE) 2,235 6.9 -6.1°
Sets 08:17:03 0° 141° (SE) 3,168 7.7 -6.5°
